Location: Dattensoll
(49.9928°N, 9.8954°E)
Time: 06:35:34
(UTC+00:00)

Cosmos 1842 - Pass Details

Date: 19 May 2025
Orbit: 440 x 450 km, 82.5° (Epoch: 14 June)

Event Time Altitude Azimuth Distance (km) Brightness Sun altitude
Exits shadow 23:37:05 24° 267° (W) 983 4.5 -19.9°
Maximum altitude 23:37:48 26° 288° (WNW) 935 4.6 -19.9°
Drops below altitude 10° 23:40:47 10° 347° (NNW) 1,602 6.7 -19.8°
Sets 23:43:07 0° 1° (N) 2,482 8.3 -19.8°
